Terminal Aerodrome Forecast
Issued by NWS Charleston, WV

Current Version | Previous Version | Graphics & Text | Print | Product List | Glossary On
Versions: 1 2 3 4 5 6 7 8 9 10 11 12 13 14 15 16 17 18 19 20
000
FTUS41 KRLX 270500 RRA
TAFHTS
TAF
KHTS 270556Z 2706/2806 31005KT P6SM OVC020
     FM270900 33005KT P6SM BKN030
     FM271100 33005KT P6SM SCT040
     FM271600 33009KT P6SM BKN040
     FM280300 32007KT P6SM SCT040=

USA.gov is the U.S. government's official web portal to all federal, state and local government web resources and services.